Tracking 19817 objects as of 19-Aug-2019
HD Live streaming from Space Station
objects crossing your sky now

THORAD DELTA 1 DEB

Track THORAD DELTA 1 DEB now!
10-day predictions


NORAD ID: 37148
Int'l Code: 1974-089FH
Perigee: 933.6 km
Apogee: 1,029.2 km
Inclination: 101.6 °
Period: 104.6 minutes
Semi major axis: 7352 km
RCS: 0.0531 m2 (small)
Launch date: November 15, 1974
Source: United States (US)
Launch site: AIR FORCE WESTERN TEST RANGE (AFWTR)

Note: This is SATELLITE DEBRIS
aabbcc
Your satellite tracking list
Your tracking list is empty




NASA's NSSDC Master Catalog

Two Line Element Set (TLE):
1 37148U 74089FH  19230.58556932 +.00005721 +00000-0 +57541-2 0  9998
2 37148 101.6335 097.0580 0064987 097.7423 316.9896 13.77079599449285
Source of the keplerian elements: AFSPC